contact:dominique.lefevre@mio.osupytheas.fr, maurice.libes@osupytheas.fr, didier.mallarino@osupytheas.fr
Project:EMSO http://www.emso-fr.org/EMSO-France
Depth: 2436.0 m
Title:EMSO Ligure Ouest : Data MII capteur CSTAR
DateTime,Latitude,Longitude,Instrument_Serial,Reference_Counts,Signal_Counts,Corrected_Signal_raw_counts,Calculated_Beam_c_inverse_meters,Internal_thermistor_counts
DateTime,Latitude,Longitude,Instrument_Serial,Reference_Counts,Signal_Counts,Corrected_Signal_raw_counts,Calculated_Beam_c_inverse_meters,Internal_thermistor_counts
2023-12-14T00:00:25,42.805,6.029,CST-1368DR,4085,4203,10900,01.438,553
2023-12-14T00:03:26,42.805,6.029,CST-1368DR,4085,4207,10911,01.434,553
2023-12-14T00:06:28,42.805,6.029,CST-1368DR,4084,4200,10896,01.440,553
2023-12-14T00:09:30,42.805,6.029,CST-1368DR,4085,4203,10901,01.438,553
2023-12-14T00:12:31,42.805,6.029,CST-1368DR,4084,4208,10915,01.433,553
2023-12-14T00:15:33,42.805,6.029,CST-1368DR,4085,4205,10907,01.436,553
2023-12-14T00:18:34,42.805,6.029,CST-1368DR,4085,4224,10956,01.418,553
2023-12-14T00:21:36,42.805,6.029,CST-1368DR,4084,4191,10873,01.448,553
2023-12-14T00:24:37,42.805,6.029,CST-1368DR,4085,4218,10941,01.423,553
2023-12-14T00:27:39,42.805,6.029,CST-1368DR,4085,4209,10916,01.432,553
2023-12-14T00:30:41,42.805,6.029,CST-1368DR,4085,4219,10941,01.423,553
2023-12-14T00:33:42,42.805,6.029,CST-1368DR,4085,4202,10898,01.439,553
2023-12-14T00:36:44,42.805,6.029,CST-1368DR,4085,4216,10933,01.426,553
2023-12-14T00:39:45,42.805,6.029,CST-1368DR,4085,4206,10909,01.435,553
2023-12-14T00:42:47,42.805,6.029,CST-1368DR,4084,4196,10885,01.444,553
2023-12-14T00:45:49,42.805,6.029,CST-1368DR,4084,4186,10859,01.453,553
2023-12-14T00:48:50,42.805,6.029,CST-1368DR,4085,4212,10924,01.429,553
2023-12-14T00:51:52,42.805,6.029,CST-1368DR,4085,4205,10907,01.436,553
2023-12-14T00:54:53,42.805,6.029,CST-1368DR,4085,4201,10895,01.440,553
2023-12-14T00:57:55,42.805,6.029,CST-1368DR,4085,4203,10902,01.437,553
2023-12-14T01:00:56,42.805,6.029,CST-1368DR,4085,4207,10911,01.434,553
2023-12-14T01:03:58,42.805,6.029,CST-1368DR,4085,4214,10930,01.427,553
2023-12-14T01:07:00,42.805,6.029,CST-1368DR,4085,4202,10898,01.439,553
2023-12-14T01:10:01,42.805,6.029,CST-1368DR,4084,4196,10885,01.444,553
2023-12-14T01:13:03,42.805,6.029,CST-1368DR,4085,4224,10954,01.418,553
2023-12-14T01:16:04,42.805,6.029,CST-1368DR,4084,4199,10893,01.441,553
2023-12-14T01:19:06,42.805,6.029,CST-1368DR,4084,4195,10882,01.445,553
2023-12-14T01:22:07,42.805,6.029,CST-1368DR,4085,4211,10921,01.430,553
2023-12-14T01:25:09,42.805,6.029,CST-1368DR,4085,4209,10917,01.432,553
2023-12-14T01:28:11,42.805,6.029,CST-1368DR,4084,4201,10897,01.439,553
2023-12-14T01:31:12,42.805,6.029,CST-1368DR,4084,4193,10876,01.447,553
2023-12-14T01:34:14,42.805,6.029,CST-1368DR,4085,4225,10958,01.417,553
2023-12-14T01:37:15,42.805,6.029,CST-1368DR,4084,4212,10926,01.429,553
2023-12-14T01:40:17,42.805,6.029,CST-1368DR,4085,4214,10929,01.428,553
2023-12-14T01:43:19,42.805,6.029,CST-1368DR,4084,4211,10924,01.429,553
2023-12-14T01:46:20,42.805,6.029,CST-1368DR,4084,4188,10863,01.452,553
2023-12-14T01:49:22,42.805,6.029,CST-1368DR,4084,4200,10896,01.440,553
2023-12-14T01:52:23,42.805,6.029,CST-1368DR,4085,4220,10946,01.421,553
2023-12-14T01:55:25,42.805,6.029,CST-1368DR,4084,4208,10917,01.432,553
2023-12-14T01:58:26,42.805,6.029,CST-1368DR,4084,4190,10869,01.450,553
2023-12-14T02:01:28,42.805,6.029,CST-1368DR,4084,4216,10936,01.425,553
2023-12-14T02:04:30,42.805,6.029,CST-1368DR,4084,4208,10917,01.432,553
2023-12-14T02:07:31,42.805,6.029,CST-1368DR,4085,4213,10926,01.429,553
2023-12-14T02:10:33,42.805,6.029,CST-1368DR,4084,4186,10860,01.453,553
2023-12-14T02:13:34,42.805,6.029,CST-1368DR,4084,4213,10929,01.428,553
2023-12-14T02:16:36,42.805,6.029,CST-1368DR,4084,4196,10886,01.443,553
2023-12-14T02:19:37,42.805,6.029,CST-1368DR,4084,4206,10912,01.434,553
2023-12-14T02:22:39,42.805,6.029,CST-1368DR,4084,4203,10904,01.437,553
2023-12-14T02:25:41,42.805,6.029,CST-1368DR,4084,4202,10902,01.437,553
2023-12-14T02:28:42,42.805,6.029,CST-1368DR,4085,4229,10969,01.413,553
2023-12-14T02:31:44,42.805,6.029,CST-1368DR,4085,4211,10921,01.430,553
2023-12-14T02:34:45,42.805,6.029,CST-1368DR,4084,4203,10903,01.437,553
2023-12-14T02:37:47,42.805,6.029,CST-1368DR,4084,4217,10941,01.423,553
2023-12-14T02:40:48,42.805,6.029,CST-1368DR,4084,4193,10876,01.447,553
2023-12-14T02:43:50,42.805,6.029,CST-1368DR,4084,4200,10896,01.440,553
2023-12-14T02:46:52,42.805,6.029,CST-1368DR,4084,4215,10933,01.426,553
2023-12-14T02:49:53,42.805,6.029,CST-1368DR,4084,4196,10885,01.444,553
2023-12-14T02:52:55,42.805,6.029,CST-1368DR,4084,4191,10871,01.449,553
2023-12-14T02:55:56,42.805,6.029,CST-1368DR,4084,4197,10887,01.443,553
2023-12-14T02:58:58,42.805,6.029,CST-1368DR,4084,4186,10859,01.453,553
2023-12-14T03:02:00,42.805,6.029,CST-1368DR,4084,4190,10870,01.449,553
2023-12-14T03:05:01,42.805,6.029,CST-1368DR,4084,4203,10903,01.437,553
2023-12-14T03:08:03,42.805,6.029,CST-1368DR,4084,4181,10846,01.458,553
2023-12-14T03:11:04,42.805,6.029,CST-1368DR,4084,4188,10865,01.451,553
2023-12-14T03:14:06,42.805,6.029,CST-1368DR,4085,4205,10906,01.436,553
2023-12-14T03:17:07,42.805,6.029,CST-1368DR,4084,4198,10891,01.441,553
2023-12-14T03:20:09,42.805,6.029,CST-1368DR,4085,4207,10912,01.434,553
2023-12-14T03:23:11,42.805,6.029,CST-1368DR,4084,4190,10870,01.449,553
2023-12-14T03:26:12,42.805,6.029,CST-1368DR,4084,4195,10884,01.444,553
2023-12-14T03:29:14,42.805,6.029,CST-1368DR,4084,4185,10856,01.454,553
2023-12-14T03:32:15,42.805,6.029,CST-1368DR,4084,4204,10906,01.436,553
2023-12-14T03:35:17,42.805,6.029,CST-1368DR,4084,4194,10880,01.445,553
2023-12-14T03:38:18,42.805,6.029,CST-1368DR,4085,4219,10941,01.423,553
2023-12-14T03:41:20,42.805,6.029,CST-1368DR,4085,4194,10878,01.446,553
2023-12-14T03:44:22,42.805,6.029,CST-1368DR,4084,4185,10858,01.454,553
2023-12-14T03:47:23,42.805,6.029,CST-1368DR,4085,4205,10907,01.436,553
2023-12-14T03:50:25,42.805,6.029,CST-1368DR,4084,4180,10843,01.459,553
2023-12-14T03:53:26,42.805,6.029,CST-1368DR,4084,4179,10841,01.460,553
2023-12-14T03:56:28,42.805,6.029,CST-1368DR,4084,4205,10908,01.435,553
2023-12-14T03:59:30,42.805,6.029,CST-1368DR,4084,4178,10839,01.461,553
2023-12-14T04:02:31,42.805,6.029,CST-1368DR,4084,4181,10847,01.458,553
2023-12-14T04:05:33,42.805,6.029,CST-1368DR,4084,4185,10856,01.454,553
2023-12-14T04:08:34,42.805,6.029,CST-1368DR,4084,4179,10841,01.460,553
2023-12-14T04:11:36,42.805,6.029,CST-1368DR,4084,4182,10850,01.457,553
2023-12-14T04:14:37,42.805,6.029,CST-1368DR,4084,4188,10865,01.451,553
2023-12-14T04:17:39,42.805,6.029,CST-1368DR,4084,4195,10882,01.445,553
2023-12-14T04:20:41,42.805,6.029,CST-1368DR,4084,4189,10867,01.450,553
2023-12-14T04:23:42,42.805,6.029,CST-1368DR,4084,4198,10889,01.442,553
2023-12-14T04:26:44,42.805,6.029,CST-1368DR,4084,4198,10891,01.441,553
2023-12-14T04:29:45,42.805,6.029,CST-1368DR,4084,4185,10856,01.454,553
2023-12-14T04:32:47,42.805,6.029,CST-1368DR,4084,4185,10857,01.454,553
2023-12-14T04:35:48,42.805,6.029,CST-1368DR,4084,4185,10858,01.454,553
2023-12-14T04:38:50,42.805,6.029,CST-1368DR,4084,4206,10910,01.434,553
2023-12-14T04:41:52,42.805,6.029,CST-1368DR,4084,4189,10866,01.451,553
2023-12-14T04:44:53,42.805,6.029,CST-1368DR,4084,4187,10861,01.452,553
2023-12-14T04:47:55,42.805,6.029,CST-1368DR,4084,4183,10852,01.456,553
2023-12-14T04:50:56,42.805,6.029,CST-1368DR,4084,4204,10905,01.436,553
2023-12-14T04:53:58,42.805,6.029,CST-1368DR,4084,4192,10876,01.447,553
2023-12-14T04:57:00,42.805,6.029,CST-1368DR,4085,4229,10967,01.414,553
2023-12-14T05:00:01,42.805,6.029,CST-1368DR,4084,4195,10883,01.444,553
2023-12-14T05:03:03,42.805,6.029,CST-1368DR,4084,4185,10856,01.454,553
2023-12-14T05:06:04,42.805,6.029,CST-1368DR,4084,4196,10885,01.444,553
2023-12-14T05:09:06,42.805,6.029,CST-1368DR,4084,4192,10874,01.448,553
2023-12-14T05:12:07,42.805,6.029,CST-1368DR,4084,4201,10898,01.439,553
2023-12-14T05:15:09,42.805,6.029,CST-1368DR,4084,4204,10906,01.436,553
2023-12-14T05:18:11,42.805,6.029,CST-1368DR,4084,4206,10911,01.434,553
2023-12-14T05:21:12,42.805,6.029,CST-1368DR,4084,4184,10853,01.455,553
2023-12-14T05:24:14,42.805,6.029,CST-1368DR,4084,4180,10843,01.459,553
2023-12-14T05:27:15,42.805,6.029,CST-1368DR,4084,4189,10868,01.450,553
2023-12-14T05:30:17,42.805,6.029,CST-1368DR,4085,4204,10904,01.437,553
2023-12-14T05:33:19,42.805,6.029,CST-1368DR,4085,4228,10966,01.414,553
2023-12-14T05:36:21,42.805,6.029,CST-1368DR,4084,4190,10869,01.450,553
2023-12-14T05:39:22,42.805,6.029,CST-1368DR,4084,4176,10834,01.462,553
2023-12-14T05:42:24,42.805,6.029,CST-1368DR,4084,4209,10920,01.431,553
2023-12-14T05:45:25,42.805,6.029,CST-1368DR,4085,4222,10951,01.419,553
2023-12-14T05:48:27,42.805,6.029,CST-1368DR,4085,4215,10931,01.427,553
2023-12-14T05:51:28,42.805,6.029,CST-1368DR,4085,4209,10915,01.433,553
2023-12-14T05:54:30,42.805,6.029,CST-1368DR,4085,4217,10937,01.425,553
2023-12-14T05:57:32,42.805,6.029,CST-1368DR,4085,4215,10932,01.426,553
2023-12-14T06:00:33,42.805,6.029,CST-1368DR,4085,4206,10908,01.435,553
2023-12-14T06:03:35,42.805,6.029,CST-1368DR,4084,4201,10898,01.439,553
2023-12-14T06:06:36,42.805,6.029,CST-1368DR,4084,4207,10914,01.433,553
2023-12-14T06:09:38,42.805,6.029,CST-1368DR,4085,4226,10960,01.416,553
2023-12-14T06:12:40,42.805,6.029,CST-1368DR,4085,4224,10954,01.418,553
2023-12-14T06:15:41,42.805,6.029,CST-1368DR,4085,4222,10950,01.420,553
2023-12-14T06:18:43,42.805,6.029,CST-1368DR,4085,4221,10947,01.421,553
2023-12-14T06:21:44,42.805,6.029,CST-1368DR,4085,4231,10972,01.412,553
2023-12-14T06:24:46,42.805,6.029,CST-1368DR,4085,4224,10956,01.418,553
2023-12-14T06:27:47,42.805,6.029,CST-1368DR,4084,4216,10937,01.425,553
2023-12-14T06:30:49,42.805,6.029,CST-1368DR,4085,4223,10954,01.418,553
2023-12-14T06:33:51,42.805,6.029,CST-1368DR,4084,4202,10900,01.438,553
2023-12-14T06:36:52,42.805,6.029,CST-1368DR,4085,4236,10987,01.406,553
2023-12-14T06:39:54,42.805,6.029,CST-1368DR,4085,4232,10976,01.410,553
2023-12-14T06:42:55,42.805,6.029,CST-1368DR,4085,4211,10921,01.430,553
2023-12-14T06:45:57,42.805,6.029,CST-1368DR,4085,4226,10960,01.416,553
2023-12-14T06:48:58,42.805,6.029,CST-1368DR,4085,4209,10916,01.432,553
2023-12-14T06:52:00,42.805,6.029,CST-1368DR,4085,4219,10943,01.422,553
2023-12-14T06:55:02,42.805,6.029,CST-1368DR,4085,4220,10944,01.422,553
2023-12-14T06:58:03,42.805,6.029,CST-1368DR,4085,4217,10937,01.425,553
2023-12-14T07:01:05,42.805,6.029,CST-1368DR,4085,4209,10917,01.432,553
2023-12-14T07:04:06,42.805,6.029,CST-1368DR,4085,4211,10922,01.430,553
2023-12-14T07:07:08,42.805,6.029,CST-1368DR,4084,4204,10906,01.436,553
2023-12-14T07:10:10,42.805,6.029,CST-1368DR,4084,4200,10895,01.440,553
2023-12-14T07:13:11,42.805,6.029,CST-1368DR,4085,4228,10965,01.414,553
2023-12-14T07:16:13,42.805,6.029,CST-1368DR,4085,4199,10890,01.442,553
2023-12-14T07:19:14,42.805,6.029,CST-1368DR,4084,4183,10851,01.456,553
2023-12-14T07:22:16,42.805,6.029,CST-1368DR,4085,4231,10974,01.411,553
2023-12-14T07:25:17,42.805,6.029,CST-1368DR,4084,4192,10875,01.447,553
2023-12-14T07:28:19,42.805,6.029,CST-1368DR,4084,4210,10922,01.430,553
2023-12-14T07:31:21,42.805,6.029,CST-1368DR,4085,4220,10946,01.421,553
2023-12-14T07:34:22,42.805,6.029,CST-1368DR,4085,4215,10933,01.426,553
2023-12-14T07:37:24,42.805,6.029,CST-1368DR,4085,4223,10954,01.418,553
2023-12-14T07:40:25,42.805,6.029,CST-1368DR,4085,4223,10954,01.418,553
2023-12-14T07:43:27,42.805,6.029,CST-1368DR,4085,4214,10928,01.428,553
2023-12-14T07:46:29,42.805,6.029,CST-1368DR,4084,4202,10901,01.438,553
2023-12-14T07:49:30,42.805,6.029,CST-1368DR,4085,4239,10995,01.403,553
2023-12-14T07:52:32,42.805,6.029,CST-1368DR,4085,4239,10995,01.403,553
2023-12-14T07:55:33,42.805,6.029,CST-1368DR,4085,4223,10952,01.419,553
2023-12-14T07:58:35,42.805,6.029,CST-1368DR,4085,4224,10954,01.418,553
2023-12-14T08:01:37,42.805,6.029,CST-1368DR,4085,4221,10948,01.421,553
2023-12-14T08:04:38,42.805,6.029,CST-1368DR,4084,4205,10909,01.435,553
2023-12-14T08:07:40,42.805,6.029,CST-1368DR,4084,4197,10889,01.442,553
2023-12-14T08:10:41,42.805,6.029,CST-1368DR,4085,4221,10948,01.421,553
2023-12-14T08:13:43,42.805,6.029,CST-1368DR,4084,4218,10941,01.423,553
2023-12-14T08:16:44,42.805,6.029,CST-1368DR,4084,4213,10930,01.427,553
2023-12-14T08:19:46,42.805,6.029,CST-1368DR,4085,4219,10943,01.422,553
2023-12-14T08:22:48,42.805,6.029,CST-1368DR,4084,4219,10944,01.422,553
2023-12-14T08:25:49,42.805,6.029,CST-1368DR,4084,4219,10944,01.422,553
2023-12-14T08:28:51,42.805,6.029,CST-1368DR,4084,4206,10911,01.434,553
2023-12-14T08:31:52,42.805,6.029,CST-1368DR,4085,4216,10935,01.425,553
2023-12-14T08:34:54,42.805,6.029,CST-1368DR,4084,4212,10928,01.428,553
2023-12-14T08:37:55,42.805,6.029,CST-1368DR,4084,4217,10939,01.424,553
2023-12-14T08:40:57,42.805,6.029,CST-1368DR,4084,4212,10928,01.428,553
2023-12-14T08:43:59,42.805,6.029,CST-1368DR,4084,4222,10953,01.419,553
2023-12-14T08:47:00,42.805,6.029,CST-1368DR,4085,4223,10954,01.418,553
2023-12-14T08:50:02,42.805,6.029,CST-1368DR,4084,4217,10941,01.423,553
2023-12-14T08:53:03,42.805,6.029,CST-1368DR,4084,4216,10937,01.425,553
2023-12-14T08:56:05,42.805,6.029,CST-1368DR,4084,4212,10926,01.429,553
2023-12-14T08:59:06,42.805,6.029,CST-1368DR,4084,4209,10919,01.431,553
2023-12-14T09:02:08,42.805,6.029,CST-1368DR,4085,4210,10920,01.431,553
2023-12-14T09:05:10,42.805,6.029,CST-1368DR,4085,4215,10932,01.426,553
2023-12-14T09:08:11,42.805,6.029,CST-1368DR,4084,4220,10948,01.421,553
2023-12-14T09:11:13,42.805,6.029,CST-1368DR,4084,4202,10901,01.438,553
2023-12-14T09:14:14,42.805,6.029,CST-1368DR,4084,4215,10933,01.426,552
2023-12-14T09:17:16,42.805,6.029,CST-1368DR,4085,4220,10946,01.421,553
2023-12-14T09:20:18,42.805,6.029,CST-1368DR,4084,4218,10943,01.422,553
2023-12-14T09:23:19,42.805,6.029,CST-1368DR,4084,4211,10923,01.430,553
2023-12-14T09:26:21,42.805,6.029,CST-1368DR,4084,4214,10931,01.427,553
2023-12-14T09:29:22,42.805,6.029,CST-1368DR,4084,4209,10919,01.431,553
2023-12-14T09:32:24,42.805,6.029,CST-1368DR,4084,4216,10936,01.425,553
2023-12-14T09:35:26,42.805,6.029,CST-1368DR,4084,4210,10920,01.431,553
2023-12-14T09:38:27,42.805,6.029,CST-1368DR,4085,4216,10935,01.425,553
2023-12-14T09:41:29,42.805,6.029,CST-1368DR,4084,4203,10903,01.437,553
2023-12-14T09:44:30,42.805,6.029,CST-1368DR,4084,4203,10904,01.437,553
2023-12-14T09:47:32,42.805,6.029,CST-1368DR,4084,4217,10941,01.423,553
2023-12-14T09:50:33,42.805,6.029,CST-1368DR,4084,4220,10947,01.421,553
2023-12-14T09:53:35,42.805,6.029,CST-1368DR,4084,4224,10959,01.417,553
2023-12-14T09:56:37,42.805,6.029,CST-1368DR,4084,4225,10961,01.416,553
2023-12-14T09:59:38,42.805,6.029,CST-1368DR,4084,4212,10926,01.429,553
2023-12-14T10:02:40,42.805,6.029,CST-1368DR,4084,4222,10954,01.418,553
2023-12-14T10:05:41,42.805,6.029,CST-1368DR,4084,4211,10923,01.430,553
2023-12-14T10:08:43,42.805,6.029,CST-1368DR,4084,4224,10958,01.417,553
2023-12-14T10:11:45,42.805,6.029,CST-1368DR,4084,4212,10928,01.428,553
2023-12-14T10:14:46,42.805,6.029,CST-1368DR,4084,4214,10931,01.427,553
2023-12-14T10:17:48,42.805,6.029,CST-1368DR,4084,4213,10930,01.427,553
2023-12-14T10:20:49,42.805,6.029,CST-1368DR,4084,4217,10939,01.424,553
2023-12-14T10:23:51,42.805,6.029,CST-1368DR,4084,4213,10930,01.427,553
2023-12-14T10:26:52,42.805,6.029,CST-1368DR,4084,4206,10911,01.434,553
2023-12-14T10:29:54,42.805,6.029,CST-1368DR,4084,4206,10910,01.434,553
2023-12-14T10:32:56,42.805,6.029,CST-1368DR,4084,4206,10911,01.434,553
2023-12-14T10:35:57,42.805,6.029,CST-1368DR,4084,4206,10910,01.434,553
2023-12-14T10:38:59,42.805,6.029,CST-1368DR,4084,4219,10944,01.422,553
2023-12-14T10:42:00,42.805,6.029,CST-1368DR,4084,4223,10954,01.418,553
2023-12-14T10:45:02,42.805,6.029,CST-1368DR,4084,4216,10938,01.424,553
2023-12-14T10:48:03,42.805,6.029,CST-1368DR,4084,4222,10953,01.419,553
2023-12-14T10:51:05,42.805,6.029,CST-1368DR,4084,4223,10956,01.418,553
2023-12-14T10:54:07,42.805,6.029,CST-1368DR,4084,4212,10928,01.428,553
2023-12-14T10:57:08,42.805,6.029,CST-1368DR,4084,4222,10954,01.418,553
2023-12-14T11:00:10,42.805,6.029,CST-1368DR,4084,4222,10952,01.419,553
2023-12-14T11:03:11,42.805,6.029,CST-1368DR,4085,4221,10948,01.421,553
2023-12-14T11:06:13,42.805,6.029,CST-1368DR,4084,4219,10944,01.422,553
2023-12-14T11:09:14,42.805,6.029,CST-1368DR,4084,4214,10932,01.426,553
2023-12-14T11:12:16,42.805,6.029,CST-1368DR,4084,4221,10950,01.420,553
2023-12-14T11:15:18,42.805,6.029,CST-1368DR,4084,4212,10926,01.429,553
2023-12-14T11:18:19,42.805,6.029,CST-1368DR,4084,4216,10937,01.425,553
2023-12-14T11:21:21,42.805,6.029,CST-1368DR,4084,4209,10919,01.431,553
2023-12-14T11:24:22,42.805,6.029,CST-1368DR,4084,4213,10930,01.427,553
2023-12-14T11:27:24,42.805,6.029,CST-1368DR,4084,4207,10913,01.433,553
2023-12-14T11:30:27,42.805,6.029,CST-1368DR,4084,4216,10938,01.424,553
2023-12-14T11:33:29,42.805,6.029,CST-1368DR,4084,4223,10956,01.418,553
2023-12-14T11:36:30,42.805,6.029,CST-1368DR,4084,4222,10952,01.419,553
2023-12-14T11:39:32,42.805,6.029,CST-1368DR,4085,4220,10946,01.421,553
2023-12-14T11:42:33,42.805,6.029,CST-1368DR,4084,4218,10942,01.423,553
2023-12-14T11:45:35,42.805,6.029,CST-1368DR,4084,4209,10919,01.431,553
2023-12-14T11:48:37,42.805,6.029,CST-1368DR,4084,4223,10955,01.418,553
2023-12-14T11:51:38,42.805,6.029,CST-1368DR,4084,4219,10945,01.422,553
2023-12-14T11:54:40,42.805,6.029,CST-1368DR,4084,4220,10947,01.421,553
2023-12-14T11:57:41,42.805,6.029,CST-1368DR,4084,4227,10965,01.414,553
2023-12-14T12:00:43,42.805,6.029,CST-1368DR,4084,4233,10981,01.409,553
2023-12-14T12:03:44,42.805,6.029,CST-1368DR,4084,4217,10940,01.423,553
2023-12-14T12:06:46,42.805,6.029,CST-1368DR,4084,4216,10938,01.424,553
2023-12-14T12:09:48,42.805,6.029,CST-1368DR,4084,4217,10940,01.423,553
2023-12-14T12:12:49,42.805,6.029,CST-1368DR,4084,4219,10945,01.422,553
2023-12-14T12:15:51,42.805,6.029,CST-1368DR,4084,4219,10946,01.421,553
2023-12-14T12:18:52,42.805,6.029,CST-1368DR,4084,4220,10947,01.421,553
2023-12-14T12:21:54,42.805,6.029,CST-1368DR,4084,4219,10945,01.422,553
2023-12-14T12:24:56,42.805,6.029,CST-1368DR,4084,4218,10943,01.422,553
2023-12-14T12:27:57,42.805,6.029,CST-1368DR,4084,4240,10998,01.402,553
2023-12-14T12:30:59,42.805,6.029,CST-1368DR,4084,4227,10967,01.414,553
2023-12-14T12:34:00,42.805,6.029,CST-1368DR,4084,4235,10985,01.407,553
2023-12-14T12:37:02,42.805,6.029,CST-1368DR,4084,4227,10966,01.414,553
2023-12-14T12:40:03,42.805,6.029,CST-1368DR,4084,4232,10978,01.410,553
2023-12-14T12:43:05,42.805,6.029,CST-1368DR,4084,4211,10923,01.430,553
2023-12-14T12:46:07,42.805,6.029,CST-1368DR,4084,4226,10963,01.415,553
2023-12-14T12:49:08,42.805,6.029,CST-1368DR,4084,4226,10964,01.415,553
2023-12-14T12:52:10,42.805,6.029,CST-1368DR,4084,4233,10981,01.409,553
2023-12-14T12:55:11,42.805,6.029,CST-1368DR,4084,4226,10964,01.415,553
2023-12-14T12:58:13,42.805,6.029,CST-1368DR,4084,4217,10939,01.424,553
2023-12-14T13:01:14,42.805,6.029,CST-1368DR,4084,4216,10936,01.425,553
2023-12-14T13:04:16,42.805,6.029,CST-1368DR,4084,4222,10953,01.419,553
2023-12-14T13:07:18,42.805,6.029,CST-1368DR,4084,4217,10939,01.424,553
2023-12-14T13:10:19,42.805,6.029,CST-1368DR,4084,4216,10937,01.425,553
2023-12-14T13:13:21,42.805,6.029,CST-1368DR,4084,4222,10952,01.419,553
2023-12-14T13:16:22,42.805,6.029,CST-1368DR,4084,4223,10954,01.418,553
2023-12-14T13:19:24,42.805,6.029,CST-1368DR,4084,4222,10952,01.419,553
2023-12-14T13:22:26,42.805,6.029,CST-1368DR,4084,4226,10964,01.415,553
2023-12-14T13:25:27,42.805,6.029,CST-1368DR,4084,4219,10944,01.422,553
2023-12-14T13:28:29,42.805,6.029,CST-1368DR,4084,4226,10963,01.415,553
2023-12-14T13:31:30,42.805,6.029,CST-1368DR,4084,4226,10963,01.415,553
2023-12-14T13:34:32,42.805,6.029,CST-1368DR,4084,4221,10949,01.420,553
2023-12-14T13:37:34,42.805,6.029,CST-1368DR,4084,4217,10940,01.423,553
2023-12-14T13:40:35,42.805,6.029,CST-1368DR,4084,4227,10965,01.414,553
2023-12-14T13:43:37,42.805,6.029,CST-1368DR,4084,4227,10967,01.414,553
2023-12-14T13:46:38,42.805,6.029,CST-1368DR,4084,4219,10945,01.422,553
2023-12-14T13:49:40,42.805,6.029,CST-1368DR,4084,4229,10970,01.413,553
2023-12-14T13:52:41,42.805,6.029,CST-1368DR,4084,4217,10940,01.423,553
2023-12-14T13:55:43,42.805,6.029,CST-1368DR,4084,4230,10973,01.411,553
2023-12-14T13:58:45,42.805,6.029,CST-1368DR,4084,4232,10979,01.409,553
2023-12-14T14:01:46,42.805,6.029,CST-1368DR,4084,4231,10976,01.410,553
2023-12-14T14:04:48,42.805,6.029,CST-1368DR,4084,4229,10972,01.412,553
2023-12-14T14:07:49,42.805,6.029,CST-1368DR,4084,4228,10968,01.413,553
2023-12-14T14:10:51,42.805,6.029,CST-1368DR,4084,4227,10966,01.414,553
2023-12-14T14:13:52,42.805,6.029,CST-1368DR,4084,4234,10983,01.408,553
2023-12-14T14:16:54,42.805,6.029,CST-1368DR,4084,4222,10953,01.419,553
2023-12-14T14:19:56,42.805,6.029,CST-1368DR,4084,4230,10974,01.411,553
2023-12-14T14:22:57,42.805,6.029,CST-1368DR,4084,4231,10975,01.411,553
2023-12-14T14:25:59,42.805,6.029,CST-1368DR,4084,4231,10976,01.410,553
2023-12-14T14:29:00,42.805,6.029,CST-1368DR,4084,4223,10955,01.418,553
2023-12-14T14:32:02,42.805,6.029,CST-1368DR,4084,4231,10977,01.410,553
2023-12-14T14:35:04,42.805,6.029,CST-1368DR,4085,4246,11012,01.397,553
2023-12-14T14:38:05,42.805,6.029,CST-1368DR,4085,4260,11048,01.384,553
2023-12-14T14:41:07,42.805,6.029,CST-1368DR,4085,4256,11037,01.388,553
2023-12-14T14:44:08,42.805,6.029,CST-1368DR,4084,4251,11027,01.392,553
2023-12-14T14:47:10,42.805,6.029,CST-1368DR,4085,4263,11055,01.382,553
2023-12-14T14:50:11,42.805,6.029,CST-1368DR,4085,4262,11053,01.382,553
2023-12-14T14:53:13,42.805,6.029,CST-1368DR,4085,4261,11052,01.383,553
2023-12-14T14:56:15,42.805,6.029,CST-1368DR,4085,4258,11044,01.386,553
2023-12-14T14:59:16,42.805,6.029,CST-1368DR,4085,4263,11055,01.382,553
2023-12-14T15:02:18,42.805,6.029,CST-1368DR,4085,4253,11029,01.391,553
2023-12-14T15:05:19,42.805,6.029,CST-1368DR,4085,4261,11052,01.383,553
2023-12-14T15:08:21,42.805,6.029,CST-1368DR,4085,4250,11024,01.393,553
2023-12-14T15:11:22,42.805,6.029,CST-1368DR,4085,4263,11057,01.381,553
2023-12-14T15:14:24,42.805,6.029,CST-1368DR,4085,4247,11014,01.397,553
2023-12-14T15:17:26,42.805,6.029,CST-1368DR,4085,4240,10996,01.403,553
2023-12-14T15:20:27,42.805,6.029,CST-1368DR,4084,4235,10985,01.407,553
2023-12-14T15:23:29,42.805,6.029,CST-1368DR,4085,4256,11039,01.387,553
2023-12-14T15:26:30,42.805,6.029,CST-1368DR,4085,4255,11035,01.389,553
2023-12-14T15:29:32,42.805,6.029,CST-1368DR,4085,4257,11042,01.386,553
2023-12-14T15:32:34,42.805,6.029,CST-1368DR,4084,4248,11020,01.394,553
2023-12-14T15:35:35,42.805,6.029,CST-1368DR,4085,4255,11035,01.389,553
2023-12-14T15:38:37,42.805,6.029,CST-1368DR,4085,4247,11015,01.396,553
2023-12-14T15:41:38,42.805,6.029,CST-1368DR,4085,4252,11028,01.391,553
2023-12-14T15:44:40,42.805,6.029,CST-1368DR,4084,4240,10998,01.402,553
2023-12-14T15:47:42,42.805,6.029,CST-1368DR,4084,4243,11007,01.399,553
2023-12-14T15:50:43,42.805,6.029,CST-1368DR,4085,4242,11003,01.401,553
2023-12-14T15:53:45,42.805,6.029,CST-1368DR,4084,4238,10994,01.404,553
2023-12-14T15:56:46,42.805,6.029,CST-1368DR,4085,4253,11031,01.390,553
2023-12-14T15:59:48,42.805,6.029,CST-1368DR,4084,4238,10993,01.404,553
2023-12-14T16:02:49,42.805,6.029,CST-1368DR,4085,4238,10991,01.405,553
2023-12-14T16:05:51,42.805,6.029,CST-1368DR,4085,4252,11029,01.391,553
2023-12-14T16:08:53,42.805,6.029,CST-1368DR,4085,4254,11033,01.390,553
2023-12-14T16:11:54,42.805,6.029,CST-1368DR,4085,4252,11028,01.391,553
2023-12-14T16:14:56,42.805,6.029,CST-1368DR,4085,4244,11007,01.399,553
2023-12-14T16:17:57,42.805,6.029,CST-1368DR,4085,4243,11005,01.400,553
2023-12-14T16:20:59,42.805,6.029,CST-1368DR,4085,4237,10989,01.406,553
2023-12-14T16:24:01,42.805,6.029,CST-1368DR,4085,4247,11016,01.396,553
2023-12-14T16:27:02,42.805,6.029,CST-1368DR,4085,4240,10997,01.403,553
2023-12-14T16:30:04,42.805,6.029,CST-1368DR,4085,4233,10978,01.410,553
2023-12-14T16:33:05,42.805,6.029,CST-1368DR,4085,4244,11007,01.399,553
2023-12-14T16:36:07,42.805,6.029,CST-1368DR,4085,4254,11033,01.390,553